Wind_Speed
48 48 49 49 48 47 46 44 43 42 38 33 31 30 29 31 35 37 36 34 34 34 33 33 33 32 29 28 30 31 31 30 30 30 30 29 29 27 25 25 26 24 23 25 28 30 32 33 33 32 31 29 28 26 25 24 24 23 22 21 19 18 17 17 17 18 18 18 17 16 15 14 15 15 14 12 12 11 12 12 13 14 16 16 17 18
48 49 49 47 47 47 45 43 42 40 36 33 33 32 31 34 37 37 35 35 35 33 34 34 33 32 29 28 30 31 30 30 30 31 32 33 33 29 25 24 25 26 27 30 32 33 33 33 32 31 30 28 26 26 25 25 24 22 21 19 18 18 17 17 18 18 18 18 18 16 15 14 14 13 12 12 12 11 11 12 13 15 16 16 17 18
50 49 48 48 48 47 45 43 41 40 37 35 35 34 33 36 38 36 35 37 35 34 35 34 32 33 31 29 31 31 30 30 32 32 32 32 32 31 27 22 21 25 28 29 30 31 29 28 28 28 29 28 26 25 25 25 22 19 18 17 17 17 17 17 18 18 18 18 17 16 15 14 13 12 12 12 11 11 12 13 14 15 16 17 17 18
50 50 49 50 48 45 45 44 42 42 40 38 37 35 35 37 37 35 37 37 36 36 36 33 33 34 32 30 31 33 32 31 31 31 31 30 29 29 28 23 20 23 28 27 25 25 25 26 27 26 26 25 26 25 23 23 21 19 17 15 15 15 15 16 17 17 16 16 16 15 14 13 12 11 11 11 11 12 12 13 14 15 16 17 18 18
49 50 51 48 45 45 45 44 44 43 41 41 38 35 36 37 36 38 39 37 37 37 35 33 33 35 33 31 32 32 32 31 30 29 30 30 30 29 28 24 20 21 26 27 25 25 25 27 26 23 22 22 23 24 21 19 20 18 16 15 16 16 16 16 17 17 16 16 15 14 13 12 11 11 11 11 12 12 13 14 14 16 17 18 18 18
49 51 48 43 43 45 45 44 44 42 41 41 39 38 37 37 38 40 38 36 37 36 35 35 34 35 34 32 32 33 32 31 30 29 29 30 29 28 26 22 19 18 20 24 25 27 26 25 22 18 19 19 18 20 19 17 17 15 14 15 17 17 16 16 16 16 16 15 14 13 13 12 11 10 11 12 13 13 13 14 15 16 17 17 18 18
51 50 43 42 44 44 44 44 43 41 41 40 38 37 36 36 38 39 36 35 36 37 38 37 35 35 35 33 33 33 32 32 31 30 30 29 27 26 25 20 19 18 19 21 24 26 27 26 23 19 18 18 18 18 16 15 15 15 14 15 15 15 15 15 16 16 16 15 14 13 12 12 11 11 12 13 14 14 14 14 15 16 16 17 17 18
53 47 43 45 45 44 45 44 42 41 40 40 39 36 36 37 38 38 37 36 38 40 40 38 36 36 36 35 34 33 33 34 33 31 30 28 25 24 23 20 19 20 19 20 23 27 30 28 26 24 21 19 19 18 16 14 15 16 15 16 15 15 14 14 16 16 15 15 13 12 12 12 11 12 13 13 14 14 14 15 15 15 15 16 17 18
51 45 45 47 46 46 45 43 42 41 41 42 39 36 36 37 38 38 37 38 41 41 38 37 38 39 39 37 34 34 35 35 33 32 29 26 24 23 23 23 21 20 20 21 24 28 29 22 21 22 21 19 18 17 17 17 17 17 16 15 16 15 14 14 16 17 16 15 14 13 13 12 12 13 13 13 13 14 15 15 15 15 15 15 16 17
48 44 45 45 44 45 44 43 41 39 41 40 36 35 36 36 38 38 38 40 42 39 37 38 39 39 40 37 34 34 36 36 32 30 29 26 25 24 25 25 22 21 22 23 24 28 25 17 15 18 18 17 17 17 18 19 20 20 18 17 17 16 14 13 15 16 16 16 15 15 14 13 13 13 13 13 13 14 14 15 15 15 14 15 16 17
46 43 44 43 43 43 42 41 38 39 40 37 34 36 36 37 38 39 40 41 42 41 40 41 40 39 38 38 38 37 35 34 30 28 29 27 26 25 25 25 23 23 25 25 25 27 23 15 13 16 15 15 15 17 18 20 22 22 21 20 19 17 14 13 14 15 16 16 15 14 13 13 13 12 12 13 13 13 14 14 14 14 14 15 17 18
45 43 45 45 45 44 42 40 40 41 41 37 37 38 37 39 39 39 41 42 43 41 40 43 42 40 38 34 38 40 33 30 29 29 29 27 25 26 25 24 24 26 29 28 26 27 24 16 12 12 13 14 15 16 19 21 23 24 23 22 21 18 16 14 13 13 14 14 13 13 12 12 12 12 12 12 13 13 13 13 14 15 16 17 18 19
44 45 47 47 47 45 43 44 45 45 42 40 41 41 41 42 41 42 43 44 44 41 43 46 44 43 41 32 34 40 34 28 29 30 29 27 26 26 25 25 27 29 31 31 28 28 25 19 13 12 15 16 17 19 20 22 23 24 24 23 21 19 17 16 14 13 13 13 13 12 12 12 12 12 12 12 12 13 12 13 15 16 17 18 19 21
46 50 50 48 47 45 45 46 48 47 45 44 44 44 44 44 45 47 46 46 45 43 48 49 44 44 43 39 41 40 33 29 29 28 27 27 27 28 27 27 29 31 33 32 30 28 26 21 17 16 18 20 20 21 21 22 22 23 23 22 21 20 18 17 15 14 14 14 13 12 12 12 12 12 12 12 12 12 12 14 15 17 18 20 21 22
50 54 53 50 49 48 48 47 47 45 44 45 44 44 44 44 46 46 46 46 44 43 49 48 44 43 42 46 47 39 32 30 27 26 27 27 28 29 29 29 30 33 35 34 32 30 28 24 20 19 20 21 22 22 21 21 20 21 21 21 20 19 18 17 16 15 14 13 13 12 13 13 12 12 11 11 12 12 13 15 16 18 19 20 21 22
50 53 51 51 50 49 49 48 47 45 43 43 42 43 44 44 44 44 44 45 44 45 48 45 43 44 43 45 42 35 32 29 26 27 27 27 29 29 29 30 31 32 35 36 34 32 30 27 23 20 21 21 21 21 20 19 17 18 20 20 20 19 18 17 16 14 13 13 13 14 13 12 12 11 11 11 11 13 14 16 17 19 20 21 21 21
48 49 49 49 48 47 48 48 47 45 44 45 44 44 45 45 46 46 44 45 44 46 46 42 42 44 43 41 36 33 32 29 28 29 27 26 27 28 29 31 30 31 33 35 35 33 31 29 25 21 20 19 20 20 19 17 16 16 19 20 20 19 18 17 15 14 14 15 14 14 13 12 12 11 11 11 12 14 15 16 18 19 20 21 21 21
48 50 49 46 44 45 46 46 43 42 45 47 46 45 46 48 47 44 44 44 44 44 45 43 41 42 42 40 34 32 32 29 28 29 27 27 26 26 27 28 28 28 30 33 33 29 27 23 20 19 18 17 17 18 18 17 16 17 18 19 19 17 17 16 15 16 16 15 14 13 12 12 11 12 12 12 14 15 16 17 18 20 21 21 21 21
47 48 46 45 44 44 45 44 43 44 47 46 44 45 45 45 43 41 43 44 43 44 45 43 41 41 43 40 33 30 31 29 29 29 28 27 25 23 23 25 27 28 30 32 28 24 24 23 19 18 19 18 16 16 16 16 16 16 17 17 17 16 16 16 16 16 16 15 14 13 12 12 12 12 13 14 15 16 17 18 19 20 21 22 22 22
44 43 42 43 44 43 44 45 46 48 48 45 45 46 44 42 42 41 42 42 41 43 44 43 41 40 42 38 31 29 31 30 29 29 28 26 24 21 21 25 27 28 29 30 29 29 30 27 20 19 20 19 17 16 15 15 15 15 16 16 15 16 16 16 17 16 16 15 13 12 12 12 13 14 15 16 17 18 18 19 20 21 22 23 23 24
43 42 41 43 45 45 46 47 47 47 47 46 47 47 45 44 45 43 42 42 41 41 42 42 40 37 38 33 28 29 32 32 31 30 29 26 22 19 22 26 27 27 29 30 31 32 33 27 18 16 19 17 16 16 15 15 15 14 15 15 15 15 15 16 16 16 15 14 13 12 12 13 14 15 16 18 19 19 20 21 22 22 23 24 25 26
44 43 42 43 45 45 45 45 46 46 45 45 46 44 44 45 45 44 45 44 42 40 41 41 39 36 33 29 28 30 31 32 32 31 30 26 21 19 21 26 28 29 31 32 31 30 31 26 16 14 17 16 15 14 13 13 13 13 14 14 15 16 16 17 17 16 15 14 13 13 14 15 16 17 18 19 20 21 22 23 24 24 25 26 26 27
44 44 44 44 43 44 46 46 46 46 44 43 43 41 40 42 43 43 43 41 40 40 40 38 37 34 29 26 29 31 30 31 32 31 30 26 23 20 21 25 29 31 32 32 31 29 29 24 15 14 17 17 16 15 14 13 13 13 14 15 16 16 16 16 16 16 15 14 15 15 16 16 17 18 19 20 22 23 24 25 25 26 26 27 28 28
44 43 44 44 43 44 45 44 43 43 43 43 43 42 41 41 40 38 38 38 38 37 36 33 31 31 26 23 27 31 31 31 32 31 30 27 25 22 21 23 27 31 32 31 30 30 29 24 18 16 17 18 18 17 17 16 16 16 16 16 16 15 15 15 15 14 14 15 16 17 17 18 19 19 21 22 23 24 25 26 27 27 27 28 29 29
43 43 44 44 45 46 45 44 45 46 46 47 46 45 44 42 40 39 40 39 36 34 33 31 29 27 23 19 24 30 32 32 31 31 30 28 25 23 21 22 25 29 33 33 32 31 30 27 23 20 18 19 19 19 18 18 19 19 19 17 17 16 15 15 15 14 15 16 17 18 19 20 20 21 22 23 24 26 27 28 28 28 29 30 30 29
43 43 44 43 44 46 46 48 50 49 50 49 48 47 46 45 44 42 41 39 35 33 33 31 28 25 22 19 21 27 31 33 32 31 30 28 26 24 23 23 24 27 32 34 33 32 30 27 25 22 21 21 21 20 20 20 21 22 21 20 19 18 16 16 16 16 17 18 18 19 20 21 22 23 23 24 26 27 28 29 29 29 30 31 30 30
42 42 41 41 41 42 43 46 47 48 50 49 49 49 47 46 44 42 41 39 36 35 34 32 29 25 22 20 20 23 27 31 32 31 30 28 27 26 25 25 26 28 31 35 35 32 28 26 24 23 22 22 22 22 22 22 22 23 21 19 18 17 16 16 17 18 18 19 19 20 21 22 23 24 25 26 27 28 29 29 30 30 31 31 31 29
40 40 39 40 41 42 43 44 44 44 46 46 47 46 45 45 44 42 42 39 38 37 35 31 29 26 22 20 20 22 24 27 29 30 30 29 28 27 26 26 27 28 30 34 33 30 27 27 25 23 23 24 24 23 23 24 24 24 22 19 18 18 18 18 19 19 19 20 20 21 22 24 25 26 26 27 28 29 30 30 31 31 31 31 30 29
39 40 39 39 39 39 40 41 41 40 42 44 43 42 42 43 43 42 41 40 39 36 33 32 30 28 24 22 22 24 25 26 28 28 29 29 29 28 28 27 27 27 29 31 31 29 27 27 28 27 27 27 26 25 24 24 25 26 24 22 21 20 21 21 21 21 21 21 22 23 24 25 26 27 27 28 29 30 30 31 32 32 31 31 29 28
39 40 39 38 37 37 38 40 40 41 42 43 43 43 42 42 42 41 40 39 37 34 33 33 31 28 26 25 23 24 26 27 28 29 29 29 29 29 29 28 27 26 28 30 31 29 27 27 29 32 32 31 29 26 24 25 26 26 26 25 23 22 22 23 23 23 24 24 25 25 26 27 28 29 29 29 30 31 31 32 32 32 31 30 28 28
39 39 39 39 36 35 38 40 40 42 42 42 43 43 43 43 42 41 40 39 37 35 34 33 31 29 28 27 25 25 26 27 28 29 29 29 29 30 29 28 27 27 28 30 30 29 28 27 29 32 34 32 29 25 25 28 27 26 27 26 23 22 23 24 25 27 27 28 28 28 28 28 29 30 30 30 31 32 32 33 33 32 31 29 28 28
40 39 39 40 37 33 35 38 39 41 41 41 43 43 44 44 44 42 42 41 38 36 35 33 32 31 30 28 27 26 26 27 28 30 30 29 29 29 29 28 28 28 28 29 30 30 30 29 29 31 32 30 27 25 26 26 24 23 25 24 23 24 25 26 28 29 31 32 31 31 30 30 31 31 31 31 32 33 33 34 33 31 29 28 28 28
40 38 37 40 39 35 33 34 36 39 40 41 43 43 43 44 44 43 42 40 38 37 35 34 33 32 31 29 28 27 26 27 27 29 30 30 29 29 29 29 30 30 29 30 31 30 30 30 30 29 28 26 26 26 26 25 24 24 25 24 25 26 27 28 29 30 31 33 33 32 31 31 32 32 32 33 33 34 34 33 32 30 28 27 27 27
38 38 37 38 40 36 30 29 32 36 39 42 43 42 41 42 43 42 41 39 38 37 36 35 33 32 31 30 29 28 28 27 27 29 30 31 31 30 30 30 30 30 31 32 30 28 28 29 28 26 25 25 26 27 27 27 25 25 25 25 26 26 27 27 27 28 29 30 31 32 32 32 32 33 33 34 34 34 34 32 30 28 27 27 27 27
33 35 36 37 38 35 30 27 30 34 39 42 40 39 39 40 40 40 40 39 38 37 35 34 34 32 32 31 30 30 30 29 29 29 30 31 32 32 32 32 31 31 32 32 28 26 26 28 27 26 25 25 26 27 26 25 25 26 26 26 27 27 27 27 27 26 26 26 27 30 33 33 33 34 34 34 35 34 32 30 28 27 26 26 26 26
30 32 33 33 34 34 31 27 29 35 38 38 37 36 37 37 38 39 39 38 38 37 35 35 34 33 33 32 32 31 31 31 30 29 29 30 31 32 32 32 31 31 30 29 27 26 27 27 26 25 23 22 22 24 25 26 27 27 27 27 27 27 27 28 27 26 25 25 26 29 33 34 34 35 35 35 34 33 30 28 27 26 26 25 25 26
30 30 31 31 30 31 30 27 27 31 34 34 34 35 35 35 35 36 36 37 37 36 35 35 35 35 34 33 33 32 32 32 31 30 30 30 29 30 30 30 29 29 29 29 28 27 26 25 23 22 22 22 23 24 26 27 27 27 27 28 28 29 29 29 28 27 26 26 27 30 34 35 35 35 35 34 33 31 28 27 26 26 25 24 25 25
30 31 31 31 28 28 29 28 26 27 30 33 34 34 34 34 34 35 35 35 36 36 35 35 35 35 35 34 34 33 33 32 31 30 29 29 28 28 28 28 27 27 27 27 27 25 24 24 22 21 23 24 24 25 26 26 26 26 28 29 29 30 30 30 29 28 26 26 27 30 34 37 36 34 33 32 31 29 27 26 26 25 24 24 24 24
28 29 30 30 29 28 29 28 26 26 29 32 34 34 34 34 34 34 34 34 35 35 35 35 35 34 35 35 34 34 34 33 31 29 27 27 27 26 26 25 25 25 25 25 25 25 25 25 23 23 24 25 24 25 27 27 27 27 29 30 30 31 31 31 30 28 26 26 27 30 34 37 35 32 31 30 29 27 26 26 25 24 23 23 23 23
27 27 28 29 29 30 29 28 26 26 28 30 32 33 34 34 35 35 35 35 35 34 34 34 34 33 34 35 34 34 34 32 30 28 27 27 27 26 26 25 24 24 24 25 25 26 26 25 24 24 24 24 25 26 27 27 28 29 30 31 31 31 32 32 30 28 27 26 27 29 34 36 35 31 29 28 27 26 26 25 24 23 23 23 22 22
27 28 28 28 27 27 28 28 27 27 27 28 30 31 33 34 35 35 35 34 34 34 34 34 34 34 35 35 34 33 33 32 30 29 29 29 28 27 27 27 26 26 26 27 27 27 26 25 25 25 25 25 26 26 27 27 29 29 30 30 31 32 33 32 31 29 28 28 29 30 34 35 33 29 28 26 26 26 26 24 23 23 23 22 21 21
26 27 27 27 25 26 28 29 27 26 28 29 29 29 32 34 35 36 36 34 33 33 34 34 34 35 36 35 35 34 32 31 30 30 30 30 29 28 29 29 28 29 29 29 28 28 27 27 27 27 26 27 27 27 27 28 29 29 29 30 30 32 32 32 31 30 30 31 31 33 33 32 30 27 26 25 26 26 24 23 22 23 22 22 21 22
23 24 25 26 26 25 27 29 29 27 28 29 29 28 29 32 34 36 36 35 34 33 34 34 34 34 35 35 34 33 31 31 30 30 30 30 30 30 30 30 29 28 27 27 27 27 28 28 28 28 27 28 29 28 29 29 29 29 30 30 31 32 32 32 32 32 31 31 32 32 30 28 27 25 25 25 25 24 23 22 22 22 22 22 22 23
21 22 23 25 26 26 26 28 30 28 26 28 30 29 27 27 29 32 34 35 35 35 34 34 34 33 33 33 32 32 32 32 31 31 31 30 30 30 30 30 29 28 28 28 29 29 29 29 29 28 29 29 29 29 29 29 30 31 31 31 31 31 30 30 31 30 28 28 30 30 28 26 25 25 24 24 23 22 22 22 22 22 22 22 23 23
18 20 21 22 24 26 25 25 26 26 25 26 29 31 31 28 26 27 30 32 33 33 33 33 33 32 32 31 31 32 32 32 32 32 32 31 31 31 31 30 30 31 32 32 32 31 31 30 29 29 29 28 28 28 29 30 30 30 30 30 30 29 28 28 27 25 24 26 29 29 27 26 25 23 22 21 21 21 21 21 21 22 22 22 22 21
16 16 16 17 20 23 25 24 24 25 27 28 27 29 32 32 28 25 26 27 28 29 29 30 30 30 30 30 30 30 30 30 31 31 31 32 32 32 32 31 32 34 34 34 33 33 32 30 29 28 28 27 27 28 29 29 29 29 28 28 27 27 27 27 25 24 25 27 28 27 26 24 22 21 20 20 21 21 21 20 20 21 21 20 20 21
16 15 14 14 15 19 23 24 25 26 28 30 28 27 29 32 31 28 27 26 27 27 28 28 28 29 29 29 29 28 29 29 29 29 29 30 30 31 32 32 33 34 34 34 34 33 31 29 28 27 27 27 28 28 28 28 28 27 26 25 24 24 24 25 25 25 27 28 28 27 24 22 20 19 20 21 21 20 19 19 19 20 20 20 20 21
15 16 15 13 13 15 18 22 25 27 29 31 31 28 27 28 29 30 29 28 28 28 28 28 28 28 28 28 28 28 29 29 28 28 28 28 28 29 31 32 32 33 34 33 32 30 29 28 28 28 28 28 28 28 28 27 26 25 24 24 24 22 22 23 24 26 28 29 28 26 23 20 20 21 22 22 21 20 19 19 20 20 20 20 20 20
13 15 17 16 15 16 17 20 23 26 29 32 33 32 29 28 28 29 30 30 30 29 29 29 29 28 28 28 29 29 29 29 29 28 28 27 27 28 30 32 33 33 32 31 30 29 29 29 30 29 28 28 28 27 26 25 23 22 23 24 23 22 23 25 26 27 27 26 24 23 22 21 22 22 22 21 20 20 20 20 21 21 20 20 20 19
14 15 16 18 19 20 20 20 22 25 28 32 34 34 32 30 29 29 30 30 31 31 31 31 30 30 30 30 30 30 30 30 30 30 29 28 26 27 29 31 32 32 32 31 30 31 31 31 31 29 28 27 27 25 24 23 21 21 21 20 19 18 20 22 24 24 23 21 20 21 22 23 22 22 21 20 20 20 20 21 21 20 20 20 19 18
15 16 16 17 19 19 19 20 22 24 27 30 33 35 35 33 32 31 31 31 31 31 32 32 32 32 32 32 33 33 33 33 33 32 30 28 26 26 28 30 32 31 31 30 31 32 32 31 30 28 26 26 25 23 22 21 20 18 19 18 16 15 16 17 18 18 18 18 18 19 20 21 21 20 20 20 20 20 20 20 20 20 20 19 18 17
Wind_Direction
218 218 218 219 219 219 218 216 215 216 214 211 212 214 213 215 217 222 225 221 219 219 219 219 220 223 221 220 222 223 222 220 221 222 220 216 213 216 221 224 226 227 229 231 232 232 231 228 224 222 221 219 220 220 221 225 227 228 232 234 235 233 233 233 236 236 232 230 232 238 246 253 255 257 262 267 271 274 279 285 291 297 301 304 305 305
217 218 218 218 218 218 217 215 215 215 212 208 209 211 209 211 218 222 222 220 217 217 219 218 219 222 221 220 223 223 222 219 217 220 221 219 217 220 224 225 227 227 226 226 229 231 230 223 217 216 217 213 214 218 222 227 228 229 234 238 235 233 232 232 235 235 233 230 231 237 244 250 253 256 263 266 268 273 281 290 295 300 302 303 305 305
215 216 216 216 216 216 214 213 213 212 209 206 207 209 207 210 218 220 218 218 215 216 220 217 218 223 222 221 224 225 222 217 215 217 219 222 224 225 226 229 234 234 231 228 227 225 221 216 214 215 214 208 207 212 220 226 228 228 234 242 239 231 229 231 235 236 235 234 232 235 242 247 251 256 261 264 270 279 286 292 297 301 303 304 306 305
215 214 214 214 214 213 213 212 211 209 207 205 205 206 206 211 216 217 217 218 215 216 219 216 217 222 221 221 224 225 222 217 215 218 219 221 223 225 230 234 237 235 228 222 222 223 221 216 212 212 211 206 204 209 216 221 222 221 226 235 230 224 229 233 236 236 234 233 229 232 240 246 250 254 260 266 275 283 288 294 299 302 304 305 306 305
216 215 214 213 212 211 212 211 210 209 207 205 203 202 206 210 212 215 216 215 215 217 218 216 218 221 220 221 225 227 226 223 220 220 221 222 223 229 238 240 242 240 227 218 216 218 222 218 210 207 204 200 202 210 216 216 217 218 220 226 227 230 238 237 235 233 229 226 226 231 238 243 248 254 262 271 277 282 287 295 301 303 304 306 306 306
216 216 214 210 211 212 212 211 210 209 207 205 202 201 205 207 210 215 216 212 214 217 217 216 218 222 221 220 224 226 228 228 225 223 223 224 227 234 241 240 242 244 234 230 225 215 214 211 207 209 204 199 205 213 216 214 214 217 218 223 232 238 242 239 232 227 223 221 223 229 236 241 247 256 266 273 277 281 288 297 302 303 304 306 306 305
215 214 210 208 210 211 211 212 210 208 207 206 203 203 205 206 210 215 213 212 215 217 217 215 215 222 223 221 223 224 225 226 226 225 226 226 229 234 238 238 240 243 241 237 228 216 208 204 208 216 209 203 210 216 221 221 215 216 219 226 235 239 239 236 229 221 218 218 222 229 237 245 253 261 268 272 277 283 291 297 300 301 303 304 305 305
215 209 205 207 208 209 210 211 209 207 206 205 202 201 203 205 210 212 211 211 215 217 217 214 212 219 223 221 222 222 222 224 224 225 227 226 227 231 234 236 235 242 245 230 221 218 212 211 221 225 213 203 206 214 224 229 222 220 223 229 235 236 236 232 223 217 216 218 222 231 242 251 257 262 266 271 278 286 292 296 299 301 303 305 307 307
212 205 204 206 205 206 207 208 208 205 205 205 201 199 201 203 208 210 210 213 217 218 218 216 213 216 222 221 220 221 221 221 221 223 226 225 224 226 230 234 234 243 242 222 217 220 216 222 234 225 211 202 202 208 216 223 226 225 226 230 232 231 233 230 223 219 219 220 226 236 246 252 253 257 264 273 281 287 292 296 301 305 306 308 309 309
209 203 204 205 205 206 206 206 204 204 207 205 199 199 201 202 206 208 209 213 218 218 218 219 215 216 223 223 220 221 223 222 220 222 224 224 223 223 226 230 234 243 235 215 212 215 213 225 228 213 207 203 202 206 210 216 223 226 227 229 229 229 231 231 226 224 225 228 234 241 246 246 248 256 266 275 280 286 292 299 304 307 309 311 312 314
206 201 203 203 204 206 206 205 202 203 206 202 198 201 201 202 206 207 209 213 216 216 217 220 217 214 221 226 223 222 223 223 221 222 224 222 220 220 222 225 231 235 226 213 210 209 211 222 217 208 212 210 207 209 210 215 221 225 228 228 228 228 231 237 235 232 232 234 238 242 243 244 250 260 268 275 281 288 296 302 305 309 313 317 320 323
202 199 202 201 202 203 202 200 200 204 203 198 198 200 200 202 205 206 209 213 216 216 218 221 219 214 215 224 226 221 221 224 221 221 223 220 219 220 219 220 225 226 221 214 210 208 213 222 220 218 219 216 215 214 214 217 220 224 228 228 228 227 231 241 244 240 235 232 235 240 244 249 255 263 270 278 286 292 298 304 307 312 318 322 325 327
198 199 201 201 201 200 198 198 199 202 200 197 199 199 200 202 203 205 209 212 213 215 219 221 219 216 214 218 225 220 218 223 220 219 220 216 215 216 214 217 221 220 218 216 212 212 217 221 225 224 215 212 215 216 217 218 220 223 226 227 228 227 231 238 241 238 231 229 234 242 247 253 259 266 274 283 288 293 302 308 310 316 321 324 325 326
196 200 201 199 200 198 198 199 200 200 198 198 200 200 201 202 204 206 207 210 212 214 220 219 217 218 216 220 227 221 216 221 220 218 219 215 214 212 209 214 216 215 217 217 214 214 217 221 229 223 210 210 213 214 216 217 220 224 226 227 228 229 231 233 233 232 230 234 241 246 250 255 262 270 278 285 291 298 308 313 315 319 323 323 324 324
196 200 199 197 198 196 197 199 200 201 200 199 201 202 202 204 207 208 209 211 211 215 222 219 217 219 218 222 227 223 220 223 220 218 217 215 216 213 208 209 212 215 217 216 215 214 215 221 228 217 207 211 212 212 214 215 219 224 226 226 227 228 229 229 229 230 233 238 243 247 252 257 265 272 279 286 294 303 310 314 317 320 323 322 322 322
199 201 198 197 197 195 197 198 198 199 200 202 203 205 205 206 210 210 211 213 212 217 224 221 218 221 220 223 224 220 222 223 217 217 216 214 217 216 211 207 209 214 216 215 214 212 216 227 229 215 207 211 213 213 214 216 220 223 223 223 224 225 226 227 229 230 233 238 241 247 252 258 266 273 280 288 298 305 308 313 317 319 320 320 319 319
201 203 200 199 198 196 197 199 198 197 198 201 203 205 206 207 211 211 212 214 215 220 226 224 221 222 224 226 223 217 220 220 215 214 213 213 216 217 213 208 208 213 215 215 215 218 229 234 224 207 204 209 211 213 215 217 219 218 219 220 222 225 227 229 230 230 231 236 240 246 252 259 267 274 282 291 299 304 307 311 314 316 317 318 318 318
201 202 200 199 199 198 199 200 198 198 201 202 202 205 207 209 212 212 212 215 216 219 226 226 223 224 227 227 221 216 217 217 215 211 209 211 213 214 214 210 209 213 216 217 222 231 237 227 205 196 203 207 208 210 212 212 212 213 216 219 223 226 228 229 229 230 233 237 242 249 255 263 270 278 286 293 297 302 305 308 311 313 315 317 317 316
202 202 197 196 198 198 200 200 197 200 203 203 203 207 210 212 215 215 214 216 216 218 225 228 225 225 228 228 222 217 216 217 217 213 209 208 209 212 211 209 210 213 216 218 220 223 217 203 195 201 206 206 208 209 210 210 210 213 216 218 221 222 223 225 228 231 236 241 247 254 261 268 275 282 288 293 297 301 303 305 308 310 312 314 314 314
201 201 197 196 197 197 199 200 199 201 203 201 204 208 209 212 216 216 217 219 218 219 224 228 227 225 228 228 222 217 216 217 218 216 211 208 207 208 208 209 212 215 218 215 212 210 204 197 198 207 208 207 209 208 209 211 212 214 217 218 218 219 220 223 226 231 238 245 253 261 268 275 281 285 289 293 296 299 301 303 305 307 309 310 311 313
196 197 196 196 197 197 199 200 201 203 203 201 205 207 206 209 213 214 217 219 219 221 225 230 231 230 231 228 218 215 215 215 216 216 213 209 205 204 205 208 211 213 214 211 210 210 205 201 207 215 213 212 211 211 213 215 215 216 219 220 220 222 224 226 230 236 243 251 259 267 274 279 283 285 288 291 294 296 299 301 304 305 307 309 310 312
193 193 194 197 197 197 199 200 201 204 204 204 207 208 207 211 213 213 215 217 217 220 224 230 232 232 233 226 215 213 214 214 215 215 214 210 205 204 203 204 207 207 208 211 213 212 210 212 221 220 218 219 217 217 218 217 218 221 225 228 228 229 231 234 238 243 248 256 263 270 275 278 281 284 286 289 292 295 298 300 302 304 307 309 311 311
193 191 192 195 196 198 201 201 202 204 204 206 209 211 212 215 216 217 219 220 220 221 224 228 231 233 232 223 213 212 211 213 214 214 215 211 206 206 203 201 205 205 207 213 217 217 218 223 227 219 224 232 229 226 226 222 223 229 231 232 232 233 236 238 242 246 252 260 265 269 274 277 280 283 286 289 292 295 297 298 300 303 307 310 311 310
194 193 193 193 194 199 201 201 204 205 204 206 208 209 212 215 218 221 224 226 225 225 229 231 233 235 235 224 215 211 210 212 214 213 214 212 208 209 206 203 205 205 208 214 218 220 222 228 234 229 233 240 236 234 234 230 231 234 234 235 235 235 238 242 246 251 256 262 266 270 273 276 279 282 284 288 290 293 295 296 300 304 307 310 310 309
195 194 195 194 194 197 198 199 203 204 205 206 207 207 209 211 213 216 221 225 225 227 230 232 234 237 236 224 215 212 210 211 213 212 212 213 211 211 211 211 210 208 211 216 218 220 223 231 236 234 235 241 239 236 236 237 239 237 236 239 241 242 246 250 255 259 263 267 270 271 273 274 277 279 282 286 289 291 294 296 300 304 307 309 309 308
196 197 196 196 197 198 198 199 202 203 204 206 207 207 209 210 211 212 216 220 222 225 227 226 227 232 233 222 211 211 211 210 213 213 212 213 214 214 214 216 219 217 215 216 217 219 223 228 233 234 237 241 240 237 239 243 244 240 237 241 244 247 253 258 263 266 268 270 271 271 271 272 274 277 280 284 286 289 291 295 299 302 306 308 308 308
199 200 199 198 200 202 203 204 205 205 206 207 207 207 208 210 212 212 215 218 219 223 225 222 220 222 226 219 208 207 209 209 211 213 212 213 214 215 215 217 222 224 219 216 216 219 221 224 228 233 239 241 240 239 242 247 249 244 241 243 242 244 253 260 264 266 267 268 269 269 269 270 273 275 277 280 283 285 289 292 297 301 306 307 307 308
200 201 202 201 201 202 205 207 208 209 210 211 211 210 210 211 212 213 215 217 217 220 223 221 219 219 221 218 208 204 206 207 208 210 211 213 215 217 217 217 222 225 220 214 215 220 225 228 228 230 237 240 239 239 241 247 250 248 246 247 245 246 252 258 262 264 266 267 269 269 269 270 272 273 275 277 280 284 287 291 296 301 305 307 307 308
199 200 202 204 204 205 206 207 209 210 212 213 214 214 213 214 215 215 216 218 218 219 222 223 220 218 219 220 214 206 203 203 205 205 207 211 213 216 217 218 221 223 218 212 214 221 228 231 229 228 234 239 238 237 241 246 249 250 250 252 252 252 253 256 261 264 267 270 271 271 270 270 271 271 272 275 278 282 286 290 295 300 304 306 307 309
199 200 201 201 204 207 208 206 207 209 212 213 213 214 214 216 218 219 219 221 221 220 223 224 221 218 218 219 216 211 206 205 205 203 204 207 210 213 216 219 220 220 216 213 217 222 227 230 229 228 233 237 236 237 243 246 247 249 253 255 256 254 254 259 263 265 269 272 273 272 271 270 269 269 270 273 276 281 285 288 293 299 303 305 307 310
197 199 200 199 201 206 208 207 207 209 210 212 212 213 213 214 217 219 219 221 222 221 223 224 223 221 219 216 216 213 209 208 207 206 207 208 209 212 216 219 220 218 217 217 220 223 228 232 234 234 236 235 233 236 245 248 248 252 256 256 257 258 261 265 266 267 270 272 272 272 271 269 267 266 268 271 275 279 283 287 293 299 303 305 308 311
196 198 198 198 198 202 206 207 209 210 210 212 212 212 213 214 215 217 218 219 220 221 222 224 225 224 221 217 216 216 213 211 209 208 210 212 214 216 218 219 218 218 218 219 221 225 229 236 241 243 241 236 233 238 247 251 253 257 261 263 265 267 269 270 269 270 270 270 270 270 269 267 265 264 266 269 273 277 282 287 293 299 303 306 309 312
196 197 198 198 199 201 203 205 209 211 211 213 213 212 213 214 216 218 219 219 220 221 222 222 224 226 225 221 218 218 217 215 213 212 212 213 216 218 219 219 218 218 218 220 223 227 231 238 242 242 240 237 237 241 248 252 255 260 264 267 269 270 270 271 271 271 270 269 267 264 264 263 262 262 264 267 272 276 280 287 294 299 302 306 310 313
197 197 199 200 200 201 202 205 208 210 212 214 214 213 214 215 216 218 220 220 220 221 222 222 223 224 226 225 222 221 220 218 216 215 214 213 214 216 217 218 219 219 221 223 226 230 233 236 239 239 239 240 243 245 248 251 258 265 269 269 269 270 271 272 272 272 272 269 265 260 258 258 259 260 263 266 270 274 280 287 294 298 302 306 310 312
202 201 202 202 202 202 202 206 210 211 214 216 214 213 215 216 217 219 221 221 222 222 223 224 223 224 225 227 226 224 222 221 219 217 216 215 215 215 216 217 219 220 224 227 230 232 233 235 239 243 245 246 244 244 247 254 265 271 270 268 269 270 272 273 274 274 273 271 268 262 256 253 255 258 261 265 268 273 280 287 292 296 301 305 309 310
203 206 206 205 205 204 203 208 213 214 216 217 215 215 216 217 219 220 221 223 223 223 224 225 225 225 225 226 227 226 225 224 223 221 221 220 220 220 220 221 222 224 228 232 234 236 238 238 241 246 250 250 246 245 251 261 269 271 269 269 270 270 272 273 275 277 275 272 270 264 255 250 251 255 259 263 267 273 281 287 291 295 300 304 306 306
199 205 208 208 207 206 205 209 215 217 218 217 216 216 217 217 219 221 223 224 224 224 225 226 226 227 226 226 227 228 229 229 227 226 226 226 226 226 227 228 229 232 235 238 241 243 244 244 247 249 250 249 249 252 259 265 268 268 268 269 270 270 272 273 275 276 276 273 269 262 253 248 247 251 255 260 266 274 281 285 290 294 298 301 302 302
197 201 206 208 208 205 206 209 214 217 219 217 216 216 216 217 219 221 222 225 226 225 226 227 228 228 228 228 229 229 229 230 230 231 232 233 232 232 232 233 235 238 241 245 248 249 247 246 248 247 245 246 251 256 261 264 265 267 268 268 269 270 271 272 273 275 274 273 269 262 252 245 244 247 252 259 267 275 280 284 288 292 296 298 298 298
198 201 204 207 209 208 207 209 213 217 219 218 217 216 215 216 218 220 222 224 226 226 227 228 229 229 230 230 230 231 230 231 233 234 235 236 237 237 238 238 239 241 243 245 247 247 246 247 247 245 244 247 252 256 260 263 265 266 267 267 268 269 269 270 270 271 273 272 269 262 252 245 242 245 253 261 269 274 279 283 286 290 292 293 293 295
199 201 202 204 207 208 208 208 212 217 220 220 219 217 217 217 218 219 221 223 225 226 227 228 229 229 230 230 231 232 233 234 236 235 234 236 237 238 239 239 239 241 243 244 246 247 249 249 247 247 250 255 257 260 262 264 266 267 267 267 267 268 268 268 269 270 271 270 266 261 252 245 242 248 256 263 268 273 278 281 284 287 288 288 291 295
202 203 205 205 206 207 209 209 213 218 219 220 220 218 218 219 220 222 223 224 224 224 226 227 228 229 231 231 230 232 233 235 236 236 236 236 236 236 236 235 234 235 237 240 242 245 247 247 248 251 256 259 260 261 264 267 269 268 267 267 267 266 267 267 268 268 270 269 264 258 250 245 246 252 258 263 268 273 277 280 282 284 284 285 291 297
205 206 207 206 205 207 209 210 214 218 218 217 220 220 220 220 221 222 223 224 223 223 224 227 228 230 232 232 231 231 232 234 235 235 236 236 234 233 233 232 232 233 236 238 240 242 243 244 247 251 254 256 259 262 267 270 268 265 264 264 264 263 265 267 267 267 267 265 258 251 247 247 249 254 258 263 269 273 275 278 281 282 283 286 292 297
204 206 209 208 207 207 209 209 212 216 216 215 218 220 220 221 223 223 223 224 224 223 223 225 227 229 232 233 234 234 234 234 234 235 235 235 235 234 234 233 233 232 233 236 238 239 241 243 246 250 253 257 260 265 268 268 265 263 262 261 261 262 265 266 266 264 265 261 253 248 247 249 250 253 258 264 269 272 274 278 280 282 285 287 292 296
200 203 208 210 209 209 210 212 213 214 215 216 218 219 218 219 222 223 223 224 225 226 225 226 227 229 232 233 233 234 233 233 233 234 234 234 234 235 236 235 233 229 228 229 231 234 238 242 246 251 255 258 262 265 267 266 264 263 262 261 262 264 267 267 265 262 261 256 250 247 248 248 249 254 260 264 268 270 274 278 281 284 286 288 291 294
196 198 202 207 209 210 212 215 215 214 216 219 221 222 222 220 220 219 219 221 223 225 227 227 228 229 230 231 230 231 231 231 232 232 232 232 232 233 233 232 229 228 229 231 233 236 240 245 249 253 257 259 262 263 264 264 263 262 263 263 262 263 264 264 261 256 252 247 244 244 245 246 249 254 259 263 266 270 274 279 282 285 287 289 291 293
184 184 190 198 204 209 213 217 216 214 216 218 221 224 226 225 223 220 218 218 220 222 225 226 227 227 228 229 229 230 230 231 231 232 232 230 230 230 231 231 231 232 236 238 240 242 246 249 252 255 257 259 261 262 263 262 262 263 265 264 261 259 258 254 249 246 246 243 241 240 241 244 248 254 258 262 265 270 274 279 282 285 287 288 291 294
184 181 182 187 195 203 211 216 216 214 215 216 217 221 226 227 227 225 224 223 223 224 226 227 227 228 228 229 229 230 230 230 231 231 232 231 229 228 229 231 234 237 240 242 243 245 247 249 251 254 257 259 262 263 263 263 264 266 264 260 257 256 254 247 241 241 243 242 239 237 238 242 250 256 258 261 264 269 274 278 283 285 286 289 292 294
194 197 197 198 198 202 208 212 213 214 215 215 215 216 221 224 225 226 228 228 228 229 230 231 231 229 229 228 228 228 228 229 229 231 232 233 231 229 229 230 232 236 240 242 243 245 246 249 252 255 258 261 263 263 262 263 265 263 257 253 252 254 252 245 242 243 244 242 239 235 235 242 252 256 257 259 263 269 274 279 282 283 286 290 293 293
201 204 207 210 210 208 207 208 210 213 215 216 216 216 218 221 222 224 226 228 230 231 233 233 233 231 230 229 227 226 226 227 229 232 233 234 235 234 232 230 230 233 237 240 242 244 247 250 253 256 259 260 260 260 261 263 261 255 250 249 251 251 247 243 241 242 242 241 238 236 237 245 252 254 256 261 267 272 276 278 279 282 286 290 291 289
210 209 210 213 214 213 211 210 212 214 215 216 218 219 220 222 223 224 226 228 230 232 233 234 234 233 232 231 230 228 228 228 230 232 233 234 236 236 234 231 230 232 235 238 242 245 248 251 253 255 256 255 255 256 258 257 254 251 249 247 245 243 241 239 238 239 240 240 240 239 241 246 251 255 261 267 271 273 274 275 277 282 287 288 286 285
218 217 217 217 217 217 214 213 215 217 217 216 218 219 222 224 226 227 229 230 232 233 235 236 237 237 236 236 235 234 233 232 231 231 232 233 233 232 230 228 228 230 233 237 241 244 246 248 250 250 249 248 249 251 251 248 245 245 244 242 242 246 247 244 243 243 244 244 244 243 245 249 255 261 266 269 270 270 271 274 279 283 285 284 282 282
Height
5713 5716 5719 5723 5727 5731 5734 5739 5742 5746 5751 5756 5760 5762 5765 5767 5767 5767 5769 5773 5776 5779 5782 5785 5786 5788 5790 5793 5794 5796 5799 5801 5804 5806 5808 5811 5812 5812 5812 5813 5814 5815 5817 5818 5818 5818 5818 5818 5819 5820 5822 5825 5827 5829 5830 5830 5830 5830 5831 5832 5833 5834 5834 5834 5835 5835 5835 5836 5837 5837 5838 5839 5839 5840 5840 5841 5842 5842 5843 5843 5843 5843 5842 5841 5840 5840
5708 5712 5716 5721 5724 5728 5732 5737 5740 5744 5749 5753 5756 5759 5762 5763 5763 5764 5768 5771 5775 5778 5780 5782 5784 5786 5788 5790 5791 5794 5796 5799 5802 5804 5806 5807 5808 5810 5811 5811 5812 5813 5812 5811 5812 5813 5814 5816 5818 5818 5820 5823 5825 5827 5827 5827 5827 5829 5830 5831 5831 5831 5832 5832 5832 5832 5833 5834 5835 5835 5836 5837 5838 5838 5839 5840 5840 5841 5841 5841 5841 5841 5840 5840 5839 5838
5703 5707 5713 5717 5719 5724 5729 5733 5737 5741 5746 5750 5752 5755 5758 5759 5759 5762 5766 5768 5772 5776 5776 5779 5783 5784 5785 5787 5789 5791 5793 5796 5798 5800 5802 5804 5806 5809 5810 5812 5814 5814 5814 5812 5811 5812 5815 5818 5820 5821 5819 5819 5822 5823 5823 5824 5826 5829 5830 5830 5831 5829 5828 5830 5830 5831 5831 5832 5833 5834 5835 5836 5836 5837 5838 5838 5839 5839 5839 5839 5839 5839 5839 5838 5837 5836
5699 5703 5707 5710 5715 5721 5725 5729 5733 5737 5741 5745 5748 5752 5755 5755 5757 5761 5763 5766 5770 5772 5773 5778 5780 5781 5783 5785 5786 5788 5790 5793 5795 5798 5800 5802 5805 5807 5808 5810 5812 5812 5813 5814 5815 5816 5818 5819 5819 5820 5820 5818 5820 5821 5820 5821 5823 5826 5827 5828 5830 5828 5826 5827 5828 5829 5830 5830 5831 5833 5834 5834 5835 5836 5836 5836 5837 5837 5838 5838 5838 5837 5837 5836 5835 5834
5697 5700 5702 5708 5715 5718 5721 5725 5729 5733 5738 5741 5745 5749 5751 5753 5756 5757 5759 5764 5767 5769 5772 5776 5778 5778 5780 5782 5784 5786 5788 5791 5794 5796 5798 5800 5803 5805 5806 5808 5809 5809 5810 5812 5814 5815 5817 5818 5817 5819 5818 5817 5818 5818 5818 5819 5821 5823 5825 5826 5828 5826 5824 5825 5826 5827 5828 5829 5830 5831 5832 5833 5834 5834 5834 5835 5835 5835 5836 5836 5836 5835 5835 5834 5833 5832
5693 5695 5701 5709 5713 5715 5718 5722 5726 5731 5735 5739 5743 5746 5748 5750 5752 5753 5757 5763 5765 5767 5770 5772 5774 5775 5777 5779 5782 5784 5787 5789 5792 5794 5795 5797 5800 5802 5803 5805 5807 5808 5810 5811 5811 5812 5813 5816 5818 5818 5816 5816 5817 5816 5816 5818 5819 5821 5823 5824 5825 5824 5823 5823 5824 5825 5826 5827 5829 5830 5831 5831 5832 5833 5833 5833 5833 5834 5834 5834 5834 5833 5832 5831 5830 5830
5686 5691 5701 5706 5708 5712 5716 5719 5724 5729 5732 5736 5741 5743 5745 5748 5749 5752 5757 5762 5763 5764 5766 5768 5772 5774 5774 5777 5779 5782 5785 5787 5789 5791 5793 5795 5798 5800 5801 5803 5805 5806 5808 5809 5810 5811 5811 5813 5814 5815 5815 5815 5816 5816 5815 5816 5818 5819 5820 5822 5823 5823 5822 5822 5823 5824 5825 5826 5827 5828 5829 5830 5831 5831 5831 5831 5832 5832 5832 5832 5832 5831 5830 5829 5828 5828
5681 5689 5697 5700 5704 5709 5712 5716 5721 5726 5730 5733 5737 5741 5743 5746 5748 5750 5755 5759 5759 5759 5762 5766 5770 5771 5772 5774 5776 5779 5782 5784 5787 5789 5791 5794 5797 5798 5799 5801 5803 5804 5806 5807 5808 5809 5809 5810 5811 5811 5812 5813 5815 5815 5814 5815 5816 5817 5818 5820 5821 5821 5820 5820 5822 5823 5824 5825 5827 5828 5828 5829 5830 5830 5830 5830 5830 5830 5831 5830 5830 5829 5828 5827 5826 5825
5678 5688 5693 5695 5700 5704 5708 5714 5718 5723 5726 5729 5734 5738 5740 5743 5746 5749 5753 5755 5755 5757 5761 5764 5766 5768 5769 5771 5773 5776 5778 5781 5784 5787 5789 5792 5795 5797 5798 5799 5801 5802 5804 5806 5807 5807 5809 5810 5810 5810 5811 5812 5813 5814 5815 5815 5816 5817 5818 5818 5820 5821 5820 5820 5821 5822 5823 5825 5826 5826 5827 5828 5828 5828 5829 5829 5829 5829 5829 5828 5828 5827 5826 5826 5825 5824
5678 5686 5690 5693 5698 5702 5707 5711 5716 5721 5723 5727 5733 5736 5738 5741 5743 5746 5749 5751 5751 5755 5759 5760 5763 5766 5767 5769 5771 5772 5774 5778 5782 5785 5788 5790 5792 5794 5796 5797 5799 5801 5802 5804 5805 5806 5809 5811 5810 5810 5811 5812 5812 5813 5815 5816 5816 5817 5817 5818 5819 5820 5820 5820 5821 5822 5823 5824 5824 5825 5826 5826 5827 5827 5827 5827 5827 5827 5827 5826 5826 5825 5825 5824 5823 5822
5677 5684 5687 5692 5696 5701 5705 5710 5715 5719 5721 5727 5731 5733 5736 5739 5741 5743 5746 5747 5748 5751 5754 5756 5759 5764 5766 5766 5767 5769 5772 5777 5781 5784 5785 5788 5790 5792 5794 5796 5798 5799 5800 5802 5804 5806 5808 5809 5809 5810 5811 5811 5811 5812 5813 5815 5816 5816 5816 5817 5818 5818 5819 5820 5820 5821 5822 5823 5823 5824 5824 5825 5825 5826 5826 5826 5826 5825 5825 5824 5824 5823 5823 5822 5821 5820
5674 5680 5683 5687 5691 5695 5701 5707 5712 5714 5718 5724 5726 5729 5733 5735 5737 5740 5743 5744 5745 5748 5752 5752 5755 5760 5764 5764 5764 5767 5772 5775 5778 5780 5782 5785 5788 5790 5792 5794 5795 5796 5797 5800 5802 5804 5806 5808 5808 5808 5809 5809 5810 5811 5812 5812 5813 5814 5815 5816 5816 5817 5817 5818 5819 5820 5821 5822 5822 5823 5823 5824 5824 5824 5824 5824 5824 5823 5823 5823 5822 5821 5820 5819 5818 5817
5673 5676 5678 5682 5687 5692 5698 5702 5705 5708 5714 5719 5722 5725 5727 5730 5733 5735 5737 5739 5742 5746 5746 5747 5752 5756 5760 5762 5761 5764 5770 5772 5775 5777 5779 5782 5784 5786 5789 5791 5792 5793 5795 5798 5801 5802 5804 5805 5806 5805 5806 5807 5808 5809 5809 5810 5811 5812 5813 5814 5815 5815 5816 5816 5818 5819 5820 5820 5821 5821 5822 5822 5822 5822 5822 5822 5822 5822 5821 5820 5820 5819 5818 5817 5816 5815
5668 5669 5672 5678 5683 5689 5694 5697 5701 5705 5710 5714 5717 5720 5723 5726 5727 5729 5732 5734 5739 5741 5740 5743 5749 5752 5757 5759 5756 5762 5769 5770 5773 5775 5777 5779 5781 5783 5785 5787 5789 5790 5793 5796 5798 5800 5801 5802 5803 5803 5804 5805 5806 5807 5807 5809 5810 5811 5812 5813 5813 5814 5814 5815 5816 5817 5818 5819 5819 5820 5820 5821 5821 5820 5820 5820 5820 5820 5819 5818 5817 5817 5816 5815 5814 5813
5661 5662 5668 5674 5679 5685 5689 5694 5699 5704 5709 5712 5715 5718 5720 5723 5724 5727 5731 5732 5737 5738 5736 5741 5747 5749 5754 5754 5754 5763 5768 5769 5772 5774 5775 5777 5778 5780 5782 5784 5785 5787 5790 5793 5796 5797 5798 5799 5800 5801 5802 5803 5804 5805 5806 5807 5808 5809 5810 5811 5812 5812 5813 5814 5815 5816 5817 5817 5818 5818 5819 5819 5819 5819 5819 5819 5818 5818 5817 5816 5816 5815 5814 5813 5813 5812
5659 5661 5667 5671 5675 5681 5686 5691 5696 5702 5707 5711 5714 5716 5719 5722 5724 5726 5729 5732 5735 5736 5735 5740 5745 5747 5750 5751 5755 5763 5766 5767 5771 5772 5773 5775 5776 5778 5780 5781 5783 5785 5788 5791 5793 5794 5796 5797 5797 5799 5800 5802 5803 5804 5805 5806 5807 5808 5809 5809 5810 5810 5811 5812 5813 5814 5815 5816 5816 5817 5817 5817 5817 5817 5817 5817 5816 5816 5815 5814 5814 5813 5813 5812 5811 5810
5659 5662 5667 5671 5676 5681 5685 5689 5693 5699 5703 5706 5709 5713 5716 5718 5720 5723 5726 5729 5733 5734 5734 5738 5742 5744 5747 5750 5756 5761 5763 5766 5768 5770 5772 5773 5774 5776 5778 5779 5781 5784 5786 5789 5791 5793 5794 5795 5796 5797 5799 5801 5802 5803 5803 5804 5805 5806 5806 5807 5808 5809 5810 5811 5811 5812 5813 5814 5814 5815 5815 5815 5815 5815 5815 5814 5814 5814 5813 5813 5812 5812 5811 5810 5809 5808
5656 5658 5664 5671 5676 5681 5684 5688 5694 5699 5700 5702 5706 5709 5711 5713 5715 5720 5724 5726 5730 5732 5732 5735 5740 5743 5745 5748 5754 5758 5761 5764 5766 5768 5770 5771 5772 5774 5776 5779 5782 5783 5785 5788 5790 5793 5795 5796 5797 5798 5799 5800 5801 5801 5801 5802 5803 5804 5804 5805 5806 5807 5808 5809 5810 5811 5811 5812 5812 5813 5813 5813 5813 5813 5812 5812 5812 5812 5812 5811 5811 5810 5809 5808 5807 5806
5653 5657 5664 5670 5674 5679 5683 5687 5692 5694 5695 5700 5705 5706 5708 5712 5716 5719 5721 5723 5727 5729 5730 5733 5737 5740 5742 5746 5753 5757 5759 5762 5764 5766 5768 5769 5771 5773 5776 5778 5780 5782 5784 5786 5790 5792 5793 5794 5796 5797 5798 5799 5799 5799 5799 5800 5801 5802 5803 5803 5804 5805 5806 5807 5808 5809 5810 5810 5810 5811 5811 5810 5810 5810 5810 5810 5810 5810 5810 5810 5809 5808 5807 5806 5805 5804
5652 5657 5663 5668 5672 5677 5680 5683 5687 5688 5692 5698 5701 5703 5707 5712 5714 5717 5719 5722 5725 5727 5729 5731 5734 5737 5740 5745 5752 5755 5757 5759 5761 5764 5765 5767 5770 5772 5775 5776 5778 5780 5782 5785 5787 5788 5789 5791 5792 5794 5796 5796 5797 5797 5798 5798 5799 5800 5801 5802 5803 5803 5804 5805 5806 5807 5808 5808 5808 5808 5808 5808 5808 5808 5808 5808 5808 5809 5808 5808 5807 5806 5805 5804 5803 5802
5649 5655 5661 5665 5668 5672 5675 5679 5683 5687 5691 5695 5697 5699 5704 5706 5709 5713 5716 5719 5723 5726 5728 5729 5732 5736 5738 5744 5750 5752 5753 5756 5758 5760 5763 5765 5768 5771 5773 5775 5777 5780 5781 5783 5784 5785 5787 5789 5790 5792 5794 5795 5795 5795 5795 5796 5796 5798 5799 5800 5801 5802 5803 5804 5805 5805 5805 5806 5806 5806 5806 5806 5806 5806 5806 5807 5807 5806 5806 5806 5805 5804 5803 5802 5801 5799
5647 5652 5657 5661 5665 5670 5674 5678 5682 5685 5690 5694 5696 5699 5703 5704 5706 5710 5712 5714 5719 5723 5725 5727 5730 5734 5737 5742 5747 5748 5750 5753 5756 5758 5760 5763 5766 5768 5771 5774 5776 5778 5780 5781 5783 5784 5786 5787 5788 5790 5792 5793 5794 5794 5794 5794 5795 5796 5797 5799 5800 5801 5801 5802 5802 5803 5803 5803 5804 5804 5804 5804 5804 5804 5804 5804 5804 5804 5804 5803 5802 5802 5801 5799 5798 5797
5645 5650 5654 5658 5664 5669 5672 5676 5680 5683 5689 5693 5696 5700 5703 5704 5706 5709 5711 5714 5718 5720 5722 5725 5728 5731 5734 5739 5744 5746 5748 5751 5753 5756 5758 5761 5764 5766 5769 5772 5774 5776 5778 5779 5781 5783 5784 5785 5787 5788 5790 5790 5792 5793 5793 5794 5794 5795 5796 5797 5798 5799 5799 5800 5800 5801 5801 5801 5801 5801 5802 5802 5802 5802 5802 5802 5802 5802 5801 5801 5800 5799 5798 5797 5795 5794
5644 5649 5652 5656 5662 5666 5670 5675 5680 5683 5687 5690 5693 5696 5699 5701 5706 5710 5712 5714 5717 5719 5722 5725 5728 5730 5733 5737 5741 5743 5746 5748 5750 5754 5756 5759 5761 5764 5767 5770 5772 5774 5776 5777 5779 5781 5782 5784 5785 5786 5787 5788 5790 5791 5791 5792 5793 5794 5795 5795 5796 5797 5797 5798 5798 5798 5799 5799 5799 5800 5800 5800 5800 5800 5800 5800 5799 5799 5799 5798 5797 5796 5795 5794 5793 5791
5642 5647 5650 5654 5658 5661 5666 5672 5674 5678 5681 5684 5687 5691 5694 5697 5702 5706 5708 5711 5714 5718 5721 5724 5727 5729 5731 5734 5738 5740 5743 5746 5749 5751 5754 5757 5760 5762 5765 5767 5770 5772 5774 5775 5777 5779 5780 5782 5784 5785 5786 5786 5788 5789 5789 5790 5791 5792 5793 5793 5794 5794 5795 5795 5796 5796 5797 5797 5797 5797 5797 5797 5797 5797 5797 5797 5797 5797 5796 5795 5794 5794 5792 5791 5790 5788
5641 5644 5648 5653 5656 5659 5662 5665 5668 5672 5676 5679 5684 5688 5691 5694 5697 5701 5704 5707 5711 5715 5718 5721 5725 5727 5729 5731 5734 5737 5740 5744 5747 5749 5752 5755 5758 5760 5763 5765 5767 5769 5771 5773 5775 5776 5778 5780 5782 5783 5783 5784 5786 5787 5787 5788 5788 5789 5790 5790 5791 5792 5793 5793 5794 5794 5794 5795 5795 5795 5795 5795 5795 5795 5795 5795 5794 5794 5793 5792 5792 5791 5790 5788 5787 5785
5640 5644 5649 5653 5657 5661 5664 5666 5668 5671 5674 5677 5681 5684 5688 5692 5695 5699 5702 5705 5709 5712 5714 5718 5723 5725 5726 5729 5732 5735 5738 5741 5745 5748 5751 5753 5756 5758 5761 5763 5764 5766 5768 5770 5772 5774 5776 5777 5778 5780 5781 5783 5784 5784 5785 5785 5786 5787 5787 5788 5789 5790 5791 5791 5792 5792 5792 5792 5792 5792 5792 5792 5792 5792 5792 5792 5792 5791 5790 5790 5789 5788 5787 5785 5784 5782
5640 5644 5648 5651 5654 5658 5661 5664 5668 5672 5675 5678 5681 5684 5688 5691 5693 5697 5699 5702 5706 5709 5712 5716 5721 5723 5725 5727 5730 5733 5736 5739 5743 5746 5748 5751 5753 5756 5758 5760 5762 5763 5765 5768 5770 5772 5774 5775 5777 5779 5780 5780 5781 5782 5782 5783 5783 5783 5784 5786 5787 5788 5788 5789 5789 5790 5790 5790 5790 5790 5790 5790 5790 5789 5789 5789 5789 5788 5787 5787 5786 5785 5784 5782 5781 5779
5638 5642 5645 5649 5653 5656 5659 5663 5668 5672 5675 5678 5681 5685 5688 5690 5692 5695 5698 5701 5704 5708 5711 5714 5717 5721 5724 5726 5728 5731 5733 5736 5740 5743 5745 5748 5751 5753 5755 5758 5760 5762 5764 5767 5769 5770 5772 5773 5775 5777 5777 5777 5778 5779 5779 5779 5779 5780 5782 5783 5785 5785 5786 5786 5786 5787 5787 5787 5787 5787 5787 5787 5787 5786 5786 5786 5785 5785 5784 5784 5783 5782 5781 5779 5778 5776
5636 5639 5643 5647 5652 5655 5657 5661 5665 5668 5671 5675 5679 5682 5686 5689 5691 5694 5697 5700 5703 5707 5710 5711 5715 5719 5722 5724 5727 5729 5732 5734 5737 5740 5742 5745 5748 5751 5753 5756 5758 5761 5764 5765 5766 5767 5769 5770 5771 5772 5772 5772 5774 5775 5775 5775 5777 5778 5779 5780 5782 5783 5783 5783 5783 5784 5784 5784 5784 5784 5784 5784 5783 5783 5783 5783 5782 5782 5781 5781 5780 5779 5778 5776 5775 5773
5634 5637 5641 5646 5650 5653 5655 5659 5662 5665 5668 5672 5675 5679 5682 5685 5688 5691 5695 5698 5701 5705 5707 5709 5713 5716 5719 5722 5724 5726 5730 5732 5735 5738 5740 5743 5746 5748 5751 5753 5756 5759 5761 5762 5763 5764 5766 5767 5767 5768 5767 5768 5770 5772 5772 5772 5775 5777 5777 5777 5779 5779 5780 5780 5780 5780 5781 5781 5781 5781 5781 5780 5780 5780 5780 5779 5779 5779 5778 5778 5777 5776 5774 5773 5771 5769
5632 5635 5639 5643 5647 5650 5654 5658 5661 5663 5667 5670 5673 5676 5679 5682 5685 5687 5690 5694 5698 5701 5705 5708 5711 5713 5716 5719 5722 5724 5727 5730 5733 5736 5738 5741 5744 5746 5748 5751 5753 5755 5758 5759 5760 5762 5764 5765 5765 5765 5765 5767 5770 5771 5770 5771 5773 5774 5774 5775 5776 5776 5776 5777 5777 5777 5777 5777 5777 5777 5777 5777 5777 5777 5776 5776 5776 5776 5775 5775 5774 5773 5771 5769 5767 5766
5630 5634 5638 5642 5645 5648 5652 5656 5659 5662 5665 5667 5669 5673 5676 5679 5682 5685 5688 5691 5695 5699 5702 5705 5708 5711 5714 5717 5720 5723 5725 5728 5731 5733 5736 5739 5741 5744 5746 5748 5750 5752 5755 5756 5758 5760 5762 5763 5763 5763 5765 5767 5768 5769 5768 5769 5770 5771 5772 5772 5773 5773 5773 5773 5773 5773 5773 5773 5773 5773 5773 5774 5773 5773 5773 5773 5773 5773 5772 5772 5771 5769 5767 5766 5764 5762
5630 5634 5637 5640 5644 5648 5652 5655 5657 5661 5663 5664 5667 5671 5674 5677 5680 5683 5686 5690 5693 5696 5699 5702 5705 5708 5711 5714 5717 5720 5722 5725 5727 5729 5732 5735 5738 5741 5743 5745 5747 5749 5751 5752 5754 5757 5759 5760 5760 5761 5763 5764 5765 5765 5766 5766 5767 5768 5768 5769 5769 5769 5769 5769 5769 5769 5769 5768 5768 5769 5770 5770 5770 5770 5770 5770 5770 5769 5769 5768 5767 5766 5764 5762 5761 5759
5632 5634 5637 5640 5644 5647 5651 5654 5657 5659 5659 5661 5666 5670 5673 5676 5679 5681 5684 5687 5690 5693 5696 5700 5703 5706 5708 5711 5714 5717 5719 5721 5724 5726 5729 5732 5734 5737 5739 5741 5744 5745 5747 5748 5751 5754 5755 5756 5757 5758 5759 5760 5761 5762 5763 5763 5764 5764 5764 5764 5764 5765 5765 5765 5765 5765 5765 5765 5765 5765 5766 5766 5766 5767 5767 5767 5767 5766 5766 5765 5764 5762 5761 5759 5758 5756
5632 5635 5637 5640 5643 5646 5650 5653 5655 5656 5658 5661 5666 5669 5671 5674 5677 5679 5682 5685 5688 5691 5694 5697 5700 5703 5706 5708 5711 5714 5716 5718 5721 5724 5726 5729 5731 5733 5736 5738 5740 5742 5743 5745 5747 5749 5750 5752 5753 5755 5756 5757 5758 5759 5760 5760 5760 5760 5760 5760 5760 5760 5761 5761 5761 5761 5761 5761 5761 5762 5762 5762 5763 5763 5763 5763 5763 5763 5763 5762 5760 5759 5757 5756 5754 5753
5631 5634 5637 5639 5642 5645 5649 5652 5653 5655 5658 5661 5664 5667 5670 5673 5675 5678 5681 5683 5686 5689 5692 5694 5697 5700 5703 5705 5708 5711 5713 5715 5718 5721 5723 5725 5728 5730 5732 5734 5736 5738 5739 5741 5742 5744 5746 5748 5750 5751 5753 5753 5754 5755 5756 5756 5756 5757 5756 5756 5756 5757 5757 5757 5757 5757 5757 5757 5758 5758 5758 5759 5759 5759 5759 5759 5759 5759 5759 5758 5757 5755 5754 5753 5751 5750
5629 5632 5635 5638 5642 5645 5648 5651 5652 5654 5656 5658 5661 5664 5667 5670 5673 5676 5679 5681 5684 5686 5689 5692 5694 5697 5700 5702 5705 5707 5710 5712 5715 5718 5720 5722 5724 5726 5729 5731 5733 5734 5736 5737 5739 5740 5742 5744 5746 5748 5749 5750 5751 5752 5752 5752 5753 5753 5752 5752 5752 5752 5752 5752 5753 5753 5753 5754 5754 5754 5754 5755 5755 5755 5755 5756 5756 5756 5756 5755 5753 5752 5751 5750 5748 5747
5628 5631 5633 5637 5640 5643 5646 5649 5651 5652 5654 5656 5659 5662 5665 5668 5671 5674 5676 5679 5681 5684 5687 5689 5692 5694 5697 5699 5702 5704 5708 5710 5712 5714 5717 5719 5721 5723 5725 5727 5729 5730 5732 5734 5735 5737 5738 5740 5742 5743 5745 5746 5748 5748 5748 5748 5748 5748 5748 5748 5748 5748 5748 5748 5749 5749 5749 5750 5750 5750 5750 5750 5751 5751 5752 5752 5753 5753 5752 5751 5750 5749 5748 5746 5745 5744
5627 5629 5631 5634 5637 5640 5644 5647 5649 5650 5652 5654 5657 5660 5663 5666 5668 5671 5674 5676 5678 5682 5684 5686 5688 5691 5693 5696 5699 5702 5705 5706 5708 5711 5713 5715 5717 5719 5721 5723 5725 5727 5728 5730 5731 5733 5734 5736 5737 5739 5741 5742 5743 5744 5744 5744 5744 5744 5744 5744 5744 5744 5744 5744 5744 5745 5745 5746 5746 5746 5746 5747 5747 5748 5749 5749 5749 5749 5749 5748 5747 5745 5744 5743 5742 5741
5625 5628 5630 5633 5636 5639 5642 5645 5646 5648 5650 5652 5655 5658 5660 5663 5666 5669 5671 5673 5676 5679 5681 5683 5685 5688 5690 5693 5696 5698 5700 5702 5705 5707 5710 5712 5714 5716 5718 5719 5721 5723 5724 5726 5728 5729 5731 5732 5734 5736 5737 5738 5739 5739 5740 5740 5740 5740 5740 5740 5740 5740 5740 5740 5740 5741 5741 5742 5742 5742 5742 5743 5744 5745 5746 5746 5746 5746 5745 5744 5743 5742 5741 5740 5739 5738
5624 5627 5629 5632 5635 5637 5640 5642 5644 5646 5648 5650 5653 5656 5658 5661 5663 5666 5668 5670 5673 5675 5678 5680 5682 5684 5687 5689 5692 5694 5697 5699 5702 5704 5706 5708 5711 5712 5714 5715 5717 5719 5721 5722 5724 5726 5727 5729 5731 5732 5733 5734 5734 5735 5735 5735 5735 5735 5735 5735 5735 5735 5735 5736 5736 5737 5737 5737 5738 5738 5739 5740 5741 5742 5743 5743 5743 5742 5742 5741 5740 5739 5738 5737 5736 5735
5624 5626 5628 5631 5633 5635 5637 5640 5641 5643 5645 5648 5651 5653 5656 5659 5661 5662 5665 5667 5669 5672 5675 5677 5679 5681 5683 5686 5689 5692 5694 5696 5698 5700 5702 5704 5707 5708 5710 5712 5714 5716 5718 5719 5721 5723 5724 5726 5727 5729 5730 5730 5730 5731 5731 5731 5731 5731 5731 5731 5731 5731 5731 5732 5732 5733 5733 5734 5735 5736 5736 5737 5738 5739 5740 5740 5740 5739 5738 5737 5736 5735 5735 5734 5733 5732
5622 5624 5627 5629 5631 5634 5636 5637 5639 5641 5644 5646 5648 5651 5654 5656 5658 5660 5662 5664 5666 5669 5671 5674 5676 5678 5680 5683 5686 5688 5690 5692 5694 5696 5698 5700 5702 5704 5706 5708 5710 5712 5714 5715 5717 5719 5720 5722 5724 5725 5725 5726 5726 5727 5727 5726 5727 5727 5727 5727 5727 5727 5727 5728 5728 5729 5730 5731 5732 5733 5734 5735 5736 5736 5737 5737 5737 5736 5735 5734 5733 5732 5732 5731 5730 5729
5620 5622 5624 5626 5629 5631 5633 5635 5637 5640 5643 5644 5646 5648 5651 5653 5655 5657 5659 5661 5663 5666 5668 5670 5673 5675 5677 5680 5682 5684 5686 5688 5690 5692 5694 5696 5698 5700 5702 5705 5707 5708 5709 5711 5713 5715 5716 5718 5720 5721 5721 5722 5722 5722 5722 5722 5722 5722 5723 5724 5724 5723 5723 5724 5725 5726 5727 5728 5729 5730 5731 5732 5733 5733 5734 5734 5733 5733 5732 5731 5730 5729 5728 5727 5727 5726
5619 5621 5622 5624 5626 5628 5631 5633 5635 5638 5640 5641 5643 5646 5647 5649 5652 5654 5656 5658 5660 5662 5665 5667 5669 5672 5674 5676 5678 5680 5682 5684 5686 5688 5690 5692 5694 5696 5698 5700 5702 5703 5705 5707 5709 5711 5712 5714 5715 5716 5717 5717 5718 5718 5718 5718 5718 5718 5719 5720 5720 5720 5720 5721 5722 5723 5724 5725 5726 5727 5728 5729 5730 5730 5730 5730 5730 5729 5728 5728 5727 5726 5725 5724 5724 5723
5618 5620 5621 5622 5624 5626 5628 5630 5632 5634 5636 5638 5641 5643 5644 5646 5649 5651 5653 5655 5658 5660 5662 5664 5666 5668 5670 5672 5674 5677 5679 5680 5682 5684 5686 5688 5691 5692 5694 5696 5698 5699 5701 5703 5705 5706 5708 5710 5711 5712 5713 5713 5713 5714 5714 5714 5714 5715 5716 5716 5716 5716 5717 5718 5719 5720 5720 5721 5723 5724 5725 5726 5727 5727 5727 5727 5727 5726 5725 5724 5723 5723 5722 5721 5721 5720
5617 5618 5620 5621 5623 5624 5626 5627 5629 5631 5633 5635 5638 5640 5642 5644 5646 5649 5651 5653 5654 5657 5659 5661 5663 5665 5667 5669 5671 5673 5675 5677 5679 5681 5683 5685 5687 5689 5690 5692 5694 5696 5697 5699 5700 5702 5704 5705 5707 5708 5708 5709 5709 5709 5710 5710 5711 5712 5712 5713 5713 5713 5714 5715 5716 5716 5717 5718 5720 5722 5722 5723 5724 5724 5724 5724 5723 5723 5722 5721 5720 5719 5719 5718 5718 5718
5616 5617 5618 5620 5621 5623 5624 5625 5627 5628 5630 5633 5635 5638 5639 5641 5643 5646 5648 5649 5651 5653 5656 5658 5660 5662 5664 5666 5668 5670 5672 5674 5676 5678 5680 5682 5683 5685 5687 5688 5690 5692 5693 5695 5697 5698 5700 5701 5702 5703 5704 5705 5705 5705 5706 5707 5708 5708 5708 5709 5710 5711 5711 5712 5713 5714 5715 5717 5718 5719 5720 5720 5721 5721 5720 5720 5720 5719 5719 5718 5717 5716 5716 5716 5715 5715
5614 5616 5617 5618 5619 5620 5622 5623 5625 5626 5628 5630 5633 5635 5637 5639 5641 5643 5645 5647 5648 5650 5652 5654 5656 5658 5660 5662 5664 5666 5669 5670 5672 5674 5676 5678 5680 5682 5683 5685 5686 5688 5689 5691 5693 5694 5696 5697 5698 5700 5701 5701 5701 5702 5703 5704 5704 5704 5705 5706 5706 5707 5709 5710 5711 5712 5713 5714 5715 5716 5716 5717 5717 5717 5717 5717 5716 5716 5715 5715 5714 5714 5713 5713 5712 5712
5613 5614 5615 5616 5617 5619 5621 5622 5623 5625 5626 5628 5630 5632 5634 5636 5638 5640 5642 5644 5646 5648 5649 5651 5653 5655 5657 5658 5660 5662 5664 5666 5668 5670 5672 5675 5676 5678 5679 5681 5682 5684 5686 5688 5689 5691 5692 5693 5694 5696 5697 5697 5698 5699 5700 5701 5702 5702 5702 5703 5704 5705 5706 5707 5708 5709 5710 5711 5712 5713 5713 5713 5713 5713 5713 5713 5713 5713 5712 5712 5711 5711 5710 5710 5709 5709